• In United Kingdom
  • List of Countries
  • For 7 days
  • Water Temperature
  • Satellite Maps
  • Weather Map
  • Weather Widgets
  • user-avatar
    Login

    Hourly Weather Haradok

    Today, 21 January, Sunday

    Time Temperature Precipitation Wind Pressure Humidity
    00:00 -6°C° 0.1 mm 0 mps 742 mmHg 96%
    01:00 -6°C° 0.1 mm 0 mps 742 mmHg 96%
    02:00 -5°C° 0.1 mm 0 mps 742 mmHg 96%
    03:00 -4°C° 0.1 mm 1 mps 742 mmHg 96%
    04:00 -4°C° 0.1 mm 1 mps 742 mmHg 96%
    05:00 -4°C° 0.1 mm 1 mps 742 mmHg 96%
    06:00 -6°C° 0.1 mm 1 mps 743 mmHg 96%
    07:00 -6°C° 0.1 mm 1 mps 743 mmHg 96%
    08:00 -6°C° 0.1 mm 1 mps 743 mmHg 96%
    09:00 -4°C° 0 mm 1 mps 743 mmHg 94%
    10:00 -4°C° 0 mm 1 mps 744 mmHg 92%
    11:00 -3°C° 0 mm 1 mps 744 mmHg 91%
    12:00 -5°C° 0 mm 2 mps 744 mmHg 88%
    13:00 -5°C° 0 mm 2 mps 744 mmHg 86%
    14:00 -5°C° 0 mm 2 mps 745 mmHg 84%
    15:00 -5°C° 0 mm 2 mps 745 mmHg 86%
    16:00 -6°C° 0 mm 2 mps 746 mmHg 88%
    17:00 -4°C° 0 mm 1 mps 746 mmHg 89%
    18:00 -4°C° 0 mm 1 mps 746 mmHg 90%
    19:00 -6°C° 0 mm 2 mps 747 mmHg 91%
    20:00 -7°C° 0 mm 2 mps 747 mmHg 92%
    21:00 -7°C° 0 mm 2 mps 747 mmHg 92%
    22:00 -7°C° 0 mm 2 mps 747 mmHg 93%
    23:00 -8°C° 0 mm 2 mps 748 mmHg 94%

    Tomorrow, 22 January, Monday

    Time Temperature Precipitation Wind Pressure Humidity
    00:00 -8°C° 0 mm 2 mps 748 mmHg 94%
    01:00 -8°C° 0 mm 2 mps 748 mmHg 94%
    02:00 -9°C° 0 mm 2 mps 749 mmHg 94%
    03:00 -9°C° 0 mm 2 mps 749 mmHg 94%
    04:00 -9°C° 0 mm 2 mps 749 mmHg 94%
    05:00 -9°C° 0 mm 2 mps 749 mmHg 95%
    06:00 -10°C° 0 mm 2 mps 749 mmHg 95%
    07:00 -10°C° 0 mm 2 mps 749 mmHg 96%
    08:00 -10°C° 0 mm 2 mps 749 mmHg 96%
    09:00 -10°C° 0 mm 2 mps 750 mmHg 94%
    10:00 -9°C° 0 mm 2 mps 750 mmHg 92%
    11:00 -8°C° 0 mm 2 mps 750 mmHg 90%
    12:00 -7°C° 0 mm 2 mps 750 mmHg 90%
    13:00 -7°C° 0 mm 2 mps 751 mmHg 89%
    14:00 -6°C° 0 mm 2 mps 751 mmHg 88%
    15:00 -7°C° 0 mm 2 mps 751 mmHg 90%
    16:00 -8°C° 0 mm 2 mps 751 mmHg 92%
    17:00 -9°C° 0 mm 2 mps 752 mmHg 94%
    18:00 -9°C° 0 mm 2 mps 752 mmHg 94%
    19:00 -9°C° 0 mm 2 mps 752 mmHg 94%
    20:00 -9°C° 0 mm 2 mps 753 mmHg 94%
    21:00 -10°C° 0 mm 2 mps 753 mmHg 94%
    22:00 -10°C° 0 mm 2 mps 753 mmHg 94%
    23:00 -10°C° 0 mm 2 mps 754 mmHg 94%

    Day after tomorrow, 23 January, Tuesday

    Time Temperature Precipitation Wind Pressure Humidity
    00:00 -10°C° 0 mm 2 mps 754 mmHg 94%
    01:00 -12°C° 0 mm 2 mps 754 mmHg 93%
    02:00 -12°C° 0 mm 2 mps 755 mmHg 93%
    03:00 -12°C° 0 mm 2 mps 755 mmHg 93%
    04:00 -12°C° 0 mm 2 mps 755 mmHg 93%
    05:00 -12°C° 0 mm 2 mps 755 mmHg 92%
    06:00 -13°C° 0 mm 2 mps 756 mmHg 92%
    07:00 -13°C° 0 mm 2 mps 756 mmHg 92%
    08:00 -13°C° 0 mm 2 mps 756 mmHg 92%
    09:00 -12°C° 0 mm 2 mps 757 mmHg 90%
    10:00 -10°C° 0 mm 2 mps 757 mmHg 87%
    11:00 -9°C° 0 mm 2 mps 757 mmHg 85%
    12:00 -8°C° 0 mm 2 mps 758 mmHg 84%
    13:00 -8°C° 0 mm 2 mps 758 mmHg 83%
    14:00 -7°C° 0 mm 2 mps 758 mmHg 83%
    15:00 -8°C° 0 mm 2 mps 758 mmHg 85%
    16:00 -9°C° 0 mm 2 mps 758 mmHg 88%
    17:00 -10°C° 0 mm 2 mps 758 mmHg 90%
    18:00 -10°C° 0 mm 2 mps 759 mmHg 90%
    19:00 -12°C° 0 mm 2 mps 759 mmHg 90%
    20:00 -10°C° 0 mm 1 mps 759 mmHg 90%
    21:00 -10°C° 0 mm 1 mps 759 mmHg 89%
    22:00 -11°C° 0 mm 1 mps 760 mmHg 89%
    23:00 -11°C° 0 mm 1 mps 760 mmHg 88%

    24 January, Wednesday

    Time Temperature Precipitation Wind Pressure Humidity
    00:00 -11°C° 0 mm 1 mps 760 mmHg 88%
    01:00 -11°C° 0 mm 1 mps 760 mmHg 87%
    02:00 -11°C° 0 mm 1 mps 760 mmHg 87%
    03:00 -11°C° 0 mm 1 mps 760 mmHg 86%
    04:00 -14°C° 0 mm 2 mps 760 mmHg 86%
    05:00 -14°C° 0 mm 2 mps 760 mmHg 85%
    06:00 -14°C° 0 mm 2 mps 760 mmHg 85%
    07:00 -14°C° 0 mm 2 mps 760 mmHg 84%
    08:00 -14°C° 0 mm 2 mps 760 mmHg 83%
    09:00 -13°C° 0 mm 2 mps 761 mmHg 80%
    10:00 -13°C° 0 mm 3 mps 761 mmHg 77%
    11:00 -10°C° 0 mm 3 mps 761 mmHg 74%
    12:00 -10°C° 0 mm 3 mps 761 mmHg 74%
    13:00 -9°C° 0 mm 3 mps 760 mmHg 73%
    14:00 -9°C° 0 mm 4 mps 760 mmHg 73%
    15:00 -10°C° 0 mm 4 mps 760 mmHg 75%
    16:00 -11°C° 0 mm 4 mps 760 mmHg 77%
    17:00 -12°C° 0 mm 4 mps 760 mmHg 78%
    18:00 -12°C° 0 mm 4 mps 760 mmHg 77%
    19:00 -12°C° 0 mm 4 mps 760 mmHg 76%
    20:00 -11°C° 0 mm 4 mps 760 mmHg 75%
    21:00 -11°C° 0 mm 4 mps 760 mmHg 74%
    22:00 -12°C° 0 mm 5 mps 760 mmHg 73%
    23:00 -12°C° 0 mm 5 mps 760 mmHg 72%

    25 January, Thursday

    Time Temperature Precipitation Wind Pressure Humidity
    00:00 -12°C° 0 mm 5 mps 759 mmHg 71%
    01:00 -12°C° 0 mm 5 mps 759 mmHg 71%
    02:00 -12°C° 0 mm 5 mps 759 mmHg 71%
    03:00 -12°C° 0 mm 5 mps 759 mmHg 70%
    04:00 -12°C° 0 mm 5 mps 759 mmHg 70%
    05:00 -12°C° 0 mm 5 mps 758 mmHg 69%
    06:00 -12°C° 0 mm 5 mps 758 mmHg 69%
    07:00 -12°C° 0 mm 5 mps 758 mmHg 69%
    08:00 -12°C° 0 mm 5 mps 758 mmHg 69%
    09:00 -11°C° 0 mm 5 mps 759 mmHg 68%
    10:00 -11°C° 0 mm 5 mps 759 mmHg 67%
    11:00 -10°C° 0 mm 6 mps 759 mmHg 66%
    12:00 -8°C° 0 mm 5 mps 758 mmHg 67%
    13:00 -8°C° 0 mm 5 mps 758 mmHg 68%
    14:00 -8°C° 0 mm 5 mps 758 mmHg 68%
    15:00 -8°C° 0 mm 5 mps 758 mmHg 71%
    16:00 -10°C° 0 mm 5 mps 758 mmHg 73%
    17:00 -11°C° 0 mm 5 mps 758 mmHg 76%
    18:00 -11°C° 0 mm 5 mps 758 mmHg 77%
    19:00 -12°C° 0 mm 5 mps 758 mmHg 78%
    20:00 -12°C° 0 mm 5 mps 758 mmHg 79%
    21:00 -12°C° 0 mm 5 mps 758 mmHg 81%
    22:00 -12°C° 0 mm 5 mps 758 mmHg 83%
    23:00 -13°C° 0 mm 5 mps 758 mmHg 85%

    26 January, Friday

    Time Temperature Precipitation Wind Pressure Humidity
    00:00 -13°C° 0 mm 5 mps 758 mmHg 87%
    01:00 -12°C° 0 mm 5 mps 758 mmHg 88%
    02:00 -12°C° 0 mm 5 mps 758 mmHg 90%
    03:00 -12°C° 0 mm 5 mps 758 mmHg 90%
    04:00 -12°C° 0 mm 5 mps 758 mmHg 91%
    05:00 -12°C° 0 mm 5 mps 758 mmHg 91%
    06:00 -12°C° 0 mm 5 mps 758 mmHg 91%
    07:00 -12°C° 0 mm 5 mps 758 mmHg 91%
    08:00 -11°C° 0 mm 4 mps 758 mmHg 91%
    09:00 -11°C° 0 mm 4 mps 759 mmHg 90%
    10:00 -11°C° 0 mm 5 mps 759 mmHg 89%
    11:00 -11°C° 0 mm 5 mps 759 mmHg 88%
    12:00 -9°C° 0 mm 4 mps 759 mmHg 87%
    13:00 -9°C° 0 mm 4 mps 759 mmHg 86%
    14:00 -9°C° 0 mm 4 mps 759 mmHg 86%
    15:00 -9°C° 0 mm 4 mps 759 mmHg 87%
    16:00 -9°C° 0 mm 4 mps 759 mmHg 88%
    17:00 -9°C° 0 mm 4 mps 759 mmHg 90%
    18:00 -10°C° 0 mm 4 mps 759 mmHg 90%
    19:00 -10°C° 0 mm 4 mps 759 mmHg 91%
    20:00 -10°C° 0 mm 4 mps 759 mmHg 92%
    21:00 -10°C° 0 mm 3 mps 759 mmHg 92%
    22:00 -10°C° 0 mm 3 mps 759 mmHg 93%
    23:00 -10°C° 0 mm 3 mps 759 mmHg 93%
    Show more